Showing default

DSX, 44344

Orbit data source: Space-Track

DSX, 44344 is a payload satellite owned by AFRL/RV (US) that was launched on Tue, 25 Jun 2019 UTC via an FALCON HEAVY launch vehicle from the Air Force Eastern Test Range (AFETR). Payload-class satellites include a variety of spacecraft equipped with specific instruments for various scientific and technological missions. These include communications satellites like Starlink; space stations such as the ISS; scientific satellites like the Hubble; Earth observation satellites from companies like Planet Labs, Umbra, and HawkEye 360; GPS; miniature CubeSats for education and research; and military/defense satellites.

Loading next visibility...
Identifier
44344, 2019-036F
Orbit
Active
Country
Flag of USUS
Related business
Manufacturer
MicrosatSystems
Mission
Operational Defense Technology
Bus & Motor
ESPA, Unknown motor
Mass
668 kg wet, 668 kg dry
Launch date (UTC)
2019-06-25 (6 years ago)
Launch vehicle
FALCON HEAVY
Launch site
Air Force Eastern Test Range (AFETR)
Object type
Payload
Rocket body
Debris
Shape & HBR
Irr + 1 Ant, 27.0 m
Radar Cross Section
11.357 m², Large (>1 m²)

Expand to show TLE details & history
Last TLE update: 6 days ago

TLE from 6 days ago
0 DSX
1 44344U 19036F   25287.41102726 -.00000012  00000-0  00000-0 0  9999
2 44344  42.2546  80.5441 1966320 270.3752  67.2938  4.54373861104628
Epoch: 2025-10-14T09:51Z
TLE epoch observation values (Epoch: 2025-10-14T09:51:52.755Z)
Latitude
0.00001°
Longitude
-90.63332°
Altitude
8,404.749 km
Speed
5.296 km/s
True Right ascension
05h 22m 08s
True Declination
0° 00' 00"
Sunlit
Object was in daylight at epoch
Visualization orbit readout
Latitude
Unknown
Longitude
Unknown
Altitude
Unknown
Speed
Unknown
Apparent Right ascension
Unknown
Apparent Declination
Unknown
Sunlit
N/A
Visualization observer readout
Local Sidereal Time
17:03:57
Azimuth
Unknown
Elevation
Unknown
Doppler factor
Unknown
Orbital elements
Apogee altitude
12,048.583 km
Perigee altitude
5,992.782 km
Semi-major axis
15,398.819 km
Eccentricity
0.19663
Inclination
42.2546°
RAAN
80.5441°
Arg. of periapsis
270.3752°
True anomaly
89.66023°
Mean anomaly
67.2938°
Eccentric anomaly
78.32698°
Mean motion
1.13583 °/min
Orbital period
316.95 mins
BSTAR
0
Loading maneuver chart data...
Computing Atmospheric mass density...
Loading historical data...
Loading historical data...
Loading historical data...
Loading historical data...
Loading historical data...
Loading historical data...
Loading historical data...

Documentation

Showing up to 5 results
|